N12KR KCLL-KDAL

Flight info

Callsign N12KR
Flight time 0h 25m
Altitude 16000
Route NAVYS REDDN4
Aircraft GLF6/M-SBDE2E3FGHIJ4J5M1RWXY/LB1D1

Departure

Time 2026-05-07 03:19
Airport Easterwood Field (KCLL)

Arrival

Time 2026-05-07 03:45
Airport Dallas Love Field (KDAL)
Time Latitude Longitude Altitude Speed Heading
2026-05-07 03:19 30.62819 -96.36726 3440 ft 239 kts
2026-05-07 03:19 30.64640 -96.36583 4231 ft 276 kts
2026-05-07 03:19 30.66584 -96.36425 4963 ft 283 kts
2026-05-07 03:20 30.68555 -96.36263 5682 ft 285 kts
2026-05-07 03:20 30.70541 -96.36092 6402 ft 289 kts
2026-05-07 03:20 30.72551 -96.35896 7125 ft 292 kts
2026-05-07 03:20 30.74587 -96.35672 7847 ft 295 kts
2026-05-07 03:21 30.76642 -96.35422 8564 ft 298 kts
2026-05-07 03:21 30.78723 -96.35143 9279 ft 303 kts
2026-05-07 03:21 30.80837 -96.34840 9995 ft 309 kts
2026-05-07 03:21 30.83085 -96.34504 10739 ft 341 kts
2026-05-07 03:22 30.85537 -96.34147 11490 ft 369 kts
2026-05-07 03:22 30.88211 -96.33755 12290 ft 394 kts
2026-05-07 03:22 30.91014 -96.33352 13052 ft 416 kts
2026-05-07 03:22 30.93953 -96.32926 13843 ft 435 kts
2026-05-07 03:23 30.96997 -96.32472 14590 ft 444 kts
2026-05-07 03:23 31.00066 -96.32001 15307 ft 447 kts
2026-05-07 03:23 31.03175 -96.31498 15857 ft 451 kts
2026-05-07 03:23 31.06300 -96.30988 15909 ft 450 kts
2026-05-07 03:24 31.09372 -96.30659 15892 ft 440 kts 353°
2026-05-07 03:24 31.12455 -96.30663 15911 ft 442 kts 355°
2026-05-07 03:24 31.15562 -96.30679 15906 ft 441 kts 353°
2026-05-07 03:24 31.18636 -96.30744 15901 ft 439 kts 353°
2026-05-07 03:25 31.21686 -96.30832 15909 ft 440 kts 352°
2026-05-07 03:25 31.24767 -96.30924 15916 ft 440 kts 352°
2026-05-07 03:25 31.27856 -96.31021 15914 ft 440 kts 352°
2026-05-07 03:25 31.30909 -96.31117 15913 ft 439 kts 352°
2026-05-07 03:26 31.33957 -96.31215 15912 ft 440 kts 352°
2026-05-07 03:26 31.37015 -96.31311 15912 ft 440 kts 352°
2026-05-07 03:26 31.40105 -96.31435 15917 ft 439 kts 351°
2026-05-07 03:26 31.43182 -96.31609 15909 ft 440 kts 351°
2026-05-07 03:27 31.46237 -96.31779 15913 ft 438 kts 351°
2026-05-07 03:27 31.49307 -96.31953 15915 ft 440 kts 351°
2026-05-07 03:27 31.52361 -96.32122 15915 ft 439 kts 351°
2026-05-07 03:27 31.55417 -96.32292 15920 ft 441 kts 351°
2026-05-07 03:28 31.58469 -96.32463 15919 ft 439 kts 351°
2026-05-07 03:28 31.61568 -96.32636 15924 ft 440 kts 351°
2026-05-07 03:28 31.64607 -96.32806 15925 ft 438 kts 351°
2026-05-07 03:28 31.67642 -96.32976 15916 ft 437 kts 351°
2026-05-07 03:29 31.70703 -96.33147 15918 ft 439 kts 351°
2026-05-07 03:29 31.73746 -96.33318 15918 ft 437 kts 350°
2026-05-07 03:29 31.75403 -96.33411 15914 ft 439 kts 351°
2026-05-07 03:29 31.78440 -96.33581 15916 ft 436 kts 351°
2026-05-07 03:30 31.81503 -96.33752 15914 ft 437 kts 351°
2026-05-07 03:30 31.84510 -96.33923 15918 ft 436 kts 350°
2026-05-07 03:30 31.87548 -96.34094 15917 ft 438 kts 350°
2026-05-07 03:30 31.90633 -96.34267 15912 ft 437 kts 350°
2026-05-07 03:31 31.93635 -96.34437 15908 ft 438 kts 350°
2026-05-07 03:31 31.96675 -96.34607 15907 ft 438 kts 350°
2026-05-07 03:31 31.99749 -96.34782 15816 ft 440 kts 350°
2026-05-07 03:31 32.02784 -96.34952 15446 ft 437 kts 351°
2026-05-07 03:32 32.05810 -96.35119 14992 ft 434 kts 351°
2026-05-07 03:32 32.08803 -96.35268 14521 ft 429 kts 351°
2026-05-07 03:32 32.11757 -96.35416 14044 ft 423 kts 351°
2026-05-07 03:32 32.14718 -96.35566 13567 ft 422 kts 351°
2026-05-07 03:33 32.17645 -96.35713 13098 ft 419 kts 351°
2026-05-07 03:33 32.20517 -96.35857 12641 ft 416 kts 352°
2026-05-07 03:33 32.23416 -96.36004 12179 ft 411 kts 352°
2026-05-07 03:33 32.26237 -96.36146 11727 ft 407 kts 353°
2026-05-07 03:34 32.29043 -96.36285 11282 ft 402 kts 353°
2026-05-07 03:34 32.31869 -96.36430 10830 ft 400 kts 353°
2026-05-07 03:34 32.34562 -96.36563 10396 ft 384 kts 353°
2026-05-07 03:34 32.37201 -96.36696 9978 ft 369 kts 353°
2026-05-07 03:35 32.39705 -96.36821 9575 ft 355 kts 354°
2026-05-07 03:35 32.42144 -96.36967 9183 ft 341 kts 349°
2026-05-07 03:35 32.44250 -96.37889 8933 ft 312 kts 321°
2026-05-07 03:35 32.45823 -96.39476 8932 ft 288 kts 313°
2026-05-07 03:36 32.47252 -96.41085 8859 ft 279 kts 311°
2026-05-07 03:36 32.48637 -96.42690 8627 ft 280 kts 311°
2026-05-07 03:36 32.50000 -96.44288 8348 ft 279 kts 311°
2026-05-07 03:36 32.51379 -96.45918 8046 ft 277 kts 311°
2026-05-07 03:37 32.52736 -96.47526 7743 ft 277 kts 311°
2026-05-07 03:37 32.54081 -96.49123 7439 ft 274 kts 311°
2026-05-07 03:37 32.55421 -96.50717 7132 ft 273 kts 311°
2026-05-07 03:37 32.56748 -96.52299 6840 ft 273 kts 311°
2026-05-07 03:38 32.58074 -96.53879 6546 ft 271 kts 311°
2026-05-07 03:38 32.59401 -96.55461 6257 ft 270 kts 311°
2026-05-07 03:38 32.60717 -96.57021 5954 ft 268 kts 313°
2026-05-07 03:38 32.62041 -96.58561 5649 ft 267 kts 313°
2026-05-07 03:39 32.63388 -96.60057 5350 ft 265 kts 315°
2026-05-07 03:39 32.64713 -96.61535 5053 ft 262 kts 315°
2026-05-07 03:39 32.66015 -96.63006 4958 ft 259 kts 315°
2026-05-07 03:39 32.67315 -96.64489 4958 ft 259 kts 315°
2026-05-07 03:40 32.68576 -96.65943 4731 ft 252 kts 314°
2026-05-07 03:40 32.69811 -96.67384 4429 ft 249 kts 315°
2026-05-07 03:40 32.71020 -96.68779 4176 ft 237 kts 316°
2026-05-07 03:40 32.72172 -96.70104 3836 ft 229 kts 317°
2026-05-07 03:41 32.73311 -96.71410 3507 ft 222 kts 317°
2026-05-07 03:41 32.74404 -96.72665 3200 ft 216 kts 318°
2026-05-07 03:41 32.75470 -96.73886 2899 ft 211 kts 318°
2026-05-07 03:41 32.76512 -96.75082 2611 ft 206 kts 318°
2026-05-07 03:42 32.77529 -96.76249 2332 ft 201 kts 318°
2026-05-07 03:42 32.78526 -96.77394 2077 ft 189 kts 318°
2026-05-07 03:42 32.79366 -96.78365 1844 ft 150 kts 318°
2026-05-07 03:42 32.80061 -96.79161 1632 ft 134 kts 319°
2026-05-07 03:43 32.80734 -96.79932 1456 ft 129 kts 318°
2026-05-07 03:43 32.81344 -96.80634 1282 ft 120 kts 319°
2026-05-07 03:43 32.81946 -96.81323 1137 ft 120 kts 318°
2026-05-07 03:43 32.82543 -96.82013 980 ft 120 kts 318°
2026-05-07 03:44 32.83142 -96.82700 820 ft 120 kts 318°
2026-05-07 03:44 32.83740 -96.83390 658 ft 120 kts 318°
2026-05-07 03:44 32.84338 -96.84073 513 ft 117 kts 318°
2026-05-07 03:44 32.84832 -96.84642 492 ft 71 kts 316°
2026-05-07 03:45 32.85096 -96.84947 492 ft 54 kts 316°
2026-05-07 03:45 32.85282 -96.85162 492 ft 24 kts 315°
2026-05-07 03:45 32.85408 -96.85241 492 ft 21 kts 27°
2026-05-07 03:45 32.85525 -96.85249 492 ft 18 kts 317°
2026-05-07 03:46 32.85641 -96.85247 492 ft 16 kts
2026-05-07 03:46 32.85752 -96.85231 492 ft 15 kts 22°
2026-05-07 03:46 32.85754 -96.85171 492 ft 0 kts 130°